Terminal Aerodrome Forecast
Issued by NWS Nashville, TN

Home | Current Version | Previous Version | Text Only | Print | Product List | Glossary On
Versions: 1 2 3 4 5 6 7 8 9 10 11 12 13 14 15 16 17 18 19 20 21 22 23 24 25 26 27 28 29 30 31 32 33 34 35 36 37
378
FTUS44 KOHX 231004 AAD
TAFBNA
TAF AMD
KBNA 231004Z 2310/2406 03012KT 4SM -DZ BR OVC006
     FM231200 02010KT 5SM -DZ BKN006 OVC012=

USA.gov is the U.S. government's official web portal to all federal, state and local government web resources and services.